Location: Star Hoppers Observatory
(42.7905°N, 83.6127°W)
Time: 05:42:58
(UTC-04:00)

Daily predictions for brighter satellites

Satellite Brightness Start Highest point End
(mag) Time Altitude Azimuth Time Altitude Azimuth Time Altitude Azimuth
Cosmos 1812 3.4 00:00:01 10° NNW 00:03:35 49° W 00:03:35 49° W
Cosmos 1000 Rocket 4.4 00:00:52 10° N 00:07:07 78° E 00:08:34 55° SSE
USA 234 3.2 00:00:56 10° NE 00:07:31 90° NW 00:14:03 10° SW
Cosmos 2082 Rocket 3.0 00:02:21 10° NW 00:07:39 41° WSW 00:08:58 35° SW
Meteor 2-4 Rocket 4.2 00:04:09 10° N 00:09:21 44° ENE 00:09:56 43° E
Cosmos 2239 Rocket 4.5 00:12:07 56° SSE 00:13:23 71° E 00:19:41 10° NNE
Meteor 1-11 Rocket 3.7 00:17:27 64° SSE 00:18:18 77° E 00:24:06 10° NNE
Meteor 2-14 Rocket 4.5 00:20:08 55° ESE 00:20:50 59° E 00:26:51 10° NNE
Cosmos 1302 Rocket 3.8 00:21:05 77° SE 00:21:15 78° ESE 00:26:33 10° NNE
Meteor 2-15 4.5 00:17:14 10° N 00:23:20 62° E 00:24:13 55° ESE
Gbstr 26 Del rocket 3.3 00:22:46 10° NW 00:27:04 66° NNW 00:27:04 66° NNW
Cosmos 1536 3.7 00:40:03 47° N 00:40:03 47° N 00:42:58 10° N
H-2A R/B 3.9 00:35:33 10° NNE 00:38:33 31° ENE 00:38:33 31° ENE
Cosmos 1400 Rocket 3.6 00:40:45 53° NNW 00:40:45 53° NNW 00:44:02 10° N
Cosmos 1892 Rocket 4.0 00:40:03 10° N 00:43:38 58° NNE 00:43:38 58° NNE
ISS -0.6 00:42:58 10° WNW 00:45:30 20° NNW 00:48:03 10° NE
Cosmos 1821 Rocket 4.1 00:46:40 54° SW 00:48:00 69° W 00:54:14 10° N
Cosmos 1605 Rocket 3.9 00:47:49 66° SE 00:48:34 73° E 00:54:58 10° NNE
Terra 3.9 00:47:55 17° WSW 00:48:35 17° W 00:51:42 10° NW
Meteor 1-23 Rocket 4.0 00:46:10 10° N 00:51:46 85° W 00:51:57 83° SW
Meteor 1-19 Rocket 4.5 00:46:23 10° NNW 00:52:07 59° W 00:52:42 56° WSW
Cosmos 2285 Rocket 3.8 00:51:55 70° S 00:52:40 82° ESE 00:59:04 10° NNE
Cosmos 1503 Rocket 4.0 00:51:57 10° NNW 00:56:59 77° WNW 00:56:59 77° WNW
Cosmos 2369 Rocket 2.1 00:57:32 77° E 00:57:32 77° E 01:03:03 10° NNE
MOS 1-B Rocket 4.3 00:58:33 51° ESE 00:59:36 58° ENE 01:06:15 10° N
Iridium 4 Rocket 4.2 00:54:15 10° NNW 00:59:57 53° W 01:00:45 49° WSW
Cosmos 1934 Rocket 4.1 01:01:47 55° WSW 01:02:45 63° W 01:08:45 10° N
CZ-4B R/B 3.9 01:04:48 20° N 01:04:48 20° N 01:05:57 10° N
Cosmos 2123 Rocket 3.9 00:57:47 10° NNW 01:04:02 70° W 01:04:44 64° SW
Cosmos 1153 Rocket 4.5 01:04:09 65° ESE 01:04:41 68° E 01:10:58 10° NNE
CZ-2C R/B 4.4 01:04:53 26° ENE 01:05:23 26° ENE 01:09:26 10° N
ALOS 2 3.2 01:10:19 55° NNW 01:10:19 55° NNW 01:13:48 10° NNW
Lacrosse 5 2.0 01:09:48 72° NNW 01:09:48 72° NNW 01:14:42 10° NE
Cosmos 1626 Rocket 4.5 01:05:49 10° N 01:09:20 44° NE 01:09:20 44° NE
CZ-2C R/B 3.5 01:06:26 10° NNE 01:10:38 36° E 01:10:38 36° E
Cosmos 1025 Rocket 4.5 01:08:56 10° NNW 01:12:09 31° WNW 01:12:09 31° WNW
Cosmos 1455 Rocket 3.8 01:14:19 52° N 01:14:19 52° N 01:17:39 10° N
NOSS 3-1 (A) 4.0 01:10:51 10° NW 01:18:25 71° WSW 01:19:56 59° S
Cosmos 968 Rocket 4.4 01:17:47 10° N 01:22:42 39° ENE 01:23:08 38° ENE
Meteor 1-5 Rocket 4.2 01:23:44 70° WNW 01:23:44 70° WNW 01:29:01 10° N
Cosmos 44 Rocket 4.5 01:24:02 10° NNW 01:28:50 37° NE 01:29:43 35° ENE
Cosmos 1943 Rocket 2.3 01:37:33 64° ENE 01:37:33 64° ENE 01:42:39 10° NNE
Cosmos 1818 3.7 01:38:10 68° ENE 01:38:10 68° ENE 01:43:04 10° NE
ATLAS 2AS CENTAUR R/B 3.1 01:31:45 10° NNW 01:39:55 72° NE 01:42:50 42° SE
Meteor 1-12 Rocket 4.2 01:48:02 76° W 01:48:04 76° W 01:53:45 10° N
Lacrosse 5 rocket 3.2 01:48:45 25° NNW 01:48:45 25° NNW 01:51:42 10° NNE
GP-B 3.8 01:52:04 10° N 01:55:30 50° NNW 01:55:30 50° NNW
Helios 1A Rocket 4.0 01:55:10 10° N 01:58:12 43° NNW 01:58:12 43° NNW
Cosmos 1777 Rocket 4.5 01:57:10 10° N 02:02:15 51° ENE 02:02:36 50° E
Cosmos 2058 Rocket 4.5 02:08:25 31° ENE 02:08:25 31° ENE 02:11:41 10° NNE
Cosmos 2100 Rocket 4.2 02:11:13 57° WSW 02:11:59 60° W 02:18:19 10° N
H-2A R/B 4.4 02:11:32 10° NNW 02:15:07 23° WNW 02:15:11 23° WNW
Cosmos 1953 Rocket 4.3 02:11:36 10° N 02:15:04 50° NNE 02:15:04 50° NNE
ISS -0.4 02:20:24 10° NW 02:22:47 18° N 02:25:08 10° NE
Cosmos 2061 Rocket 4.3 02:23:45 50° WSW 02:24:39 53° WNW 02:30:56 10° N
BREEZE-M DEB (TANK) 4.1 02:07:36 10° WNW 02:24:51 71° NNE 02:28:18 17° E
Cosmos 1726 Rocket 4.2 02:26:26 52° NE 02:26:26 52° NE 02:29:52 10° NNE
Cosmos 1825 Rocket 4.2 02:22:32 10° NNW 02:25:59 51° NNW 02:25:59 51° NNW
Meteor 1-21 4.1 02:22:14 10° N 02:27:52 83° E 02:28:11 79° SE
Cosmos 2233 Rocket 4.3 02:27:50 47° ESE 02:28:52 52° E 02:34:47 10° NNE
Cosmos 1459 Rocket 4.5 02:30:29 43° W 02:31:12 45° WNW 02:37:01 10° N
Cosmos 2016 Rocket 4.0 02:31:20 59° WSW 02:31:57 62° W 02:38:01 10° N
Cosmos 1802 Rocket 4.4 02:36:32 45° W 02:37:21 48° WNW 02:43:25 10° N
Cosmos 1758 Rocket 4.0 02:35:28 10° N 02:39:14 62° NNW 02:39:14 62° NNW
Cosmos 1743 4.1 02:41:18 35° NNW 02:41:18 35° NNW 02:43:50 10° N
Cosmos 2369 Rocket 4.3 02:39:18 14° W 02:42:05 19° NW 02:45:59 10° N
ATLAS CENTAUR R/B 4.0 02:43:06 15° ESE 02:43:06 15° ESE 02:45:54 10° ENE
SeaSat 1 2.3 02:44:12 88° ENE 02:44:12 88° ENE 02:49:10 10° NNW
CZ-2C R/B 3.9 02:45:58 35° WNW 02:45:58 35° WNW 02:49:41 10° NNW
Meteor 1-15 Rocket 4.4 02:45:49 57° SE 02:46:39 64° E 02:52:29 10° NNE
Meteor 2-9 Rocket 4.3 02:47:36 64° SSE 02:48:22 73° E 02:54:11 10° NNE
Cosmos 1340 3.8 02:45:14 10° N 02:47:50 42° N 02:47:50 42° N
Cosmos 2219 3.4 02:45:18 10° NNW 02:50:27 55° W 02:50:27 55° W
CZ-2C R/B 3.9 02:47:01 10° N 02:51:26 29° WNW 02:52:09 28° W
Cosmos 1864 Rocket 4.5 02:51:15 58° SW 02:52:12 66° W 02:58:25 10° N
Lacrosse 5 4.0 02:49:17 10° WNW 02:53:19 23° NNW 02:57:21 10° NNE
Cosmos 2227 Rocket 3.1 02:49:37 10° NNW 02:55:05 46° ENE 02:58:36 21° ESE
Cosmos 1842 4.2 02:51:20 10° N 02:54:13 46° NNW 02:54:13 46° NNW
Cosmos 1570 Rocket 3.9 02:58:55 76° SW 02:59:18 82° WNW 03:04:41 10° NNE
Cosmos 1725 Rocket 4.3 03:06:36 45° WSW 03:07:38 49° WNW 03:13:37 10° N
Cosmos 1666 3.7 03:10:35 40° NNW 03:10:35 40° NNW 03:13:20 10° N
NOSS 3-3 (A) 4.2 03:08:19 47° WSW 03:10:08 68° NW 03:16:53 10° NNE
NOSS 3-3 (C) 4.2 03:08:25 48° WSW 03:10:13 68° NW 03:16:59 10° NNE
Cosmos 2278 3.9 03:12:02 49° SSE 03:13:04 57° ESE 03:18:38 10° NNE
Cosmos 1656 Rocket 4.4 03:12:36 38° W 03:13:49 43° WNW 03:19:11 10° NNE
Cosmos 2369 4.1 03:13:13 44° SE 03:14:20 51° ESE 03:19:49 10° NE
Cosmos 2228 3.2 03:15:46 61° NW 03:15:46 61° NW 03:19:42 10° N
Cosmos 2297 Rocket 3.0 03:11:08 10° NNW 03:16:37 48° ENE 03:21:33 13° SE
Resurs 1-4 Rocket 4.2 03:15:43 10° NE 03:19:25 19° E 03:22:30 12° SE
AQUA 4.1 03:15:56 10° NNE 03:20:39 58° E 03:21:22 51° SE
Cosmos 1943 Rocket 4.0 03:19:03 16° W 03:21:22 21° NW 03:25:32 10° N
USA 161 4.1 03:21:36 17° ENE 03:21:50 17° ENE 03:23:49 10° NNE
NPP 3.7 03:17:49 10° NNE 03:23:14 75° ESE 03:24:27 54° S
ADEOS 4.4 03:19:17 10° NNE 03:24:16 43° E 03:25:56 33° SE
Cosmos 405 Rocket 3.5 03:22:02 10° N 03:26:02 50° ENE 03:26:38 45° ESE
ARIANE 5 R/B 4.0 03:23:02 10° NE 03:27:28 29° E 03:29:52 20° SE
ATLAS 2AS CENTAUR R/B 3.9 03:23:45 10° NW 03:30:12 28° WSW 03:30:12 28° WSW
Landsat 4 4.2 03:32:11 51° NW 03:32:11 51° NW 03:35:17 10° NNW
SL-16 R/B 3.7 03:26:11 10° SE 03:31:52 40° ENE 03:37:33 10° N
Milstar 3 Cent rocket 4.2 03:36:28 14° SE 03:36:28 14° SE 03:38:18 10° SE
BREEZE-M DEB (TANK) 3.3 03:38:17 46° SW 03:39:54 74° SSE 03:42:58 10° ENE
Spot 4 Rocket 4.4 03:38:10 10° NNE 03:43:16 56° E 03:45:14 35° SSE
IRAS Rocket 4.2 03:39:04 10° NNE 03:44:44 87° ESE 03:46:41 43° SSW
Cosmos 1812 Rocket 3.5 03:45:31 62° SW 03:46:02 69° W 03:50:31 10° N
SL-08 R/B 3.3 03:48:23 53° SW 03:48:52 56° W 03:53:27 10° NNW
Cosmos 44 4.5 03:45:33 10° NW 03:48:52 28° W 03:48:52 28° W
ERS-2 2.1 03:47:10 10° NNE 03:50:54 75° ESE 03:51:13 69° SSE
CBERS-1 4.0 03:47:40 10° N 03:52:47 70° WNW 03:54:16 46° SW
IRS-1D 4.3 03:48:52 10° NNE 03:53:37 44° E 03:56:09 25° SSE
Cosmos 2298 Rocket 3.9 03:48:37 10° NNW 03:53:53 69° WSW 03:55:45 40° S
BREEZE-M DEB (TANK) 3.7 03:49:40 10° WNW 03:52:42 27° WNW 03:52:42 27° WNW
Cosmos 1814 Rocket 4.1 03:53:05 41° S 03:54:58 75° ESE 04:00:20 10° NNE
GPS 2-04 Rocket1 4.5 03:57:57 20° SE 03:57:57 20° SE 03:59:38 10° ESE
SME Rocket 4.5 03:53:44 15° SSE 03:58:32 74° ENE 04:07:09 10° NNW
Cosmos 972 Rocket 4.4 03:55:11 10° NNW 03:59:47 39° W 04:00:12 38° WSW
ISS -2.2 03:56:38 10° NW 03:59:48 45° NNE 04:02:57 10° ESE
Cosmos 1656 3.8 04:03:16 35° S 04:05:47 75° ESE 04:11:27 10° NNE
Cosmos 1707 2.7 04:02:53 10° NNW 04:06:48 63° W 04:07:17 56° SW
Cosmos 1464 Rocket 4.2 04:08:20 33° SW 04:10:59 56° WNW 04:17:14 10° N
UNK 4.0 04:09:14 16° SSE 04:12:56 69° ENE 04:17:36 10° N
CZ-2D R/B 2.5 04:11:30 10° NNE 04:16:56 62° E 04:20:34 21° S
IRS-1C 4.4 04:12:44 10° N 04:17:55 52° WNW 04:20:10 32° SW
Cosmos 1508 4.5 04:14:44 10° N 04:18:00 83° W 04:18:17 69° SSW
Okean 3 Rocket 3.7 04:15:00 10° NNW 04:19:19 54° W 04:20:36 39° SW
Cosmos 990 Rocket 3.9 04:14:23 10° NNW 04:19:40 87° WSW 04:24:56 10° SSE
Cosmos 468 Rocket 4.2 04:19:13 33° SW 04:21:18 55° WNW 04:26:24 10° NNE
ATLAS CENTAUR R/B 1.8 04:19:27 35° SW 04:21:34 77° WNW 04:26:36 10° NNE
NOSS 7 (E) 4.5 04:21:03 48° S 04:21:49 68° SE 04:25:15 10° NE
NOSS 2-1 (D) 3.9 04:24:02 33° WSW 04:25:30 50° NW 04:29:56 10° NNE
Cosmos 1092 Rocket 4.1 04:19:32 10° N 04:25:51 78° E 04:32:10 10° S
Meteor 2-12 Rocket 4.4 04:22:19 24° S 04:26:07 84° W 04:32:13 10° N
NOSS 2-1 (C) 3.9 04:25:23 33° WSW 04:26:52 50° NW 04:31:19 10° NNE
Cosmos 1697 Rocket 2.7 04:24:08 27° SSW 04:27:20 83° ESE 04:33:01 10° NNE
Cosmos 2082 4.3 04:22:53 10° NW 04:27:55 35° WSW 04:29:42 28° SW
UNK 4.4 04:24:37 10° WNW 04:28:35 26° N 04:30:42 10° NE
Cosmos 1980 Rocket 2.6 04:31:21 19° S 04:35:21 59° ESE 04:40:55 10° NNE
Cosmos 2227 Rocket 3.2 04:34:11 10° NW 04:38:52 27° WSW 04:40:20 24° SW
NOSS 2-1 (E) 4.3 04:40:01 24° W 04:42:03 40° NW 04:46:31 10° NNE
Cosmos 1898 Rocket 4.5 04:38:17 10° NW 04:42:48 28° W 04:44:32 23° SW
GEOS 3 Rocket 3.5 04:38:03 10° SSE 04:43:14 66° SW 04:48:24 10° NW
Cosmos 2322 Rocket 3.9 04:42:00 10° SSE 04:46:44 28° ESE 04:51:27 10° NE
Abrixas 3.0 04:44:48 10° WNW 04:47:50 60° NNE 04:50:52 10° ESE
Cosmos 1125 Rocket 3.7 04:44:00 10° NNW 04:49:13 72° ENE 04:54:24 10° SSE
USA 161 3.4 04:52:45 16° WNW 04:52:45 16° WNW 04:54:08 10° NW
Cosmos 1076 Rocket 3.8 04:48:50 10° NNW 04:53:01 48° W 04:55:56 18° SSW
Cosmos 841 Rocket 3.6 04:49:56 21° SSW 04:53:28 68° WNW 04:58:45 10° NNE
NOSS 3-4 (A) 4.0 04:46:58 10° NW 04:53:42 50° WSW 05:00:47 10° S
Cosmos 1500 Rocket 4.5 04:49:24 10° N 04:53:42 49° ENE 04:57:56 10° SSE
NOSS 3-4 (C) 4.0 04:47:04 10° NW 04:53:50 51° WSW 05:00:58 10° S
Cosmos 2142 Rocket 4.5 04:49:08 11° S 04:55:05 89° E 05:01:15 10° N
Cosmos 1937 Rocket 4.3 04:51:17 10° NW 04:55:43 30° W 04:58:31 18° SSW
MTI 3.7 04:55:25 14° S 04:58:06 66° WSW 05:01:24 10° NNW
Cosmos 1743 Rocket 3.6 04:54:09 10° N 04:58:30 83° E 05:02:52 10° S
PSLV R/B 4.3 04:55:34 10° NNE 04:59:23 57° E 05:03:05 10° S
Resurs 1-4 Rocket 2.3 04:54:28 10° N 04:59:36 55° WNW 05:03:34 17° SW
Cosmos 1470 4.3 04:56:00 10° SSE 04:59:36 36° E 05:03:15 10° NNE
CZ-4B R/B 4.2 04:56:16 10° NNE 04:59:55 35° E 05:03:24 10° SSE
Cosmos 2297 Rocket 3.2 04:55:48 10° NW 05:00:19 25° WSW 05:03:14 17° SW
Cosmos 1763 Rocket 3.8 04:56:53 20° SW 05:00:23 52° WNW 05:05:28 10° N
Okean O Rocket 2.0 04:57:26 10° NNE 05:01:49 63° ESE 05:06:11 10° S
Cosmos 1437 2.8 05:00:33 10° N 05:03:55 89° ESE 05:07:14 10° S
MOZ.5/SAFIR/RUBIN 5/SL-8 4.1 05:00:21 10° SSE 05:05:02 71° ENE 05:09:44 10° N
ARIANE 5 R/B 3.3 05:01:58 10° N 05:06:37 36° WNW 05:10:13 16° SW
Cosmos 1766 4.4 05:05:45 19° WSW 05:07:43 28° WNW 05:11:11 10° NNW
Cosmos 2279 Rocket 4.3 05:02:37 10° S 05:08:50 71° E 05:15:05 10° NNE
Lacrosse 5 rocket 4.3 05:08:38 10° N 05:09:42 11° NNE 05:10:45 10° NNE
Cosmos 1378 4.4 05:10:53 10° NW 05:13:57 24° W 05:15:54 16° SW
SL-16 R/B 3.2 05:10:04 10° SSW 05:15:31 34° W 05:21:05 10° NNW
Cosmos 2360 4.3 05:10:13 11° SSW 05:15:40 87° ESE 05:21:25 10° NNE
SL-16 R/B 3.0 05:13:46 10° S 05:19:11 49° ESE 05:24:40 10° NE
UNKNOWN OBJECT B 3.5 05:16:05 10° N 05:19:44 37° WNW 05:22:43 14° SW
Cosmos-2242 3.5 05:16:24 14° SSW 05:19:55 44° WNW 05:24:03 10° N
Cosmos 2221 4.5 05:17:20 10° SSE 05:21:02 29° E 05:24:47 10° NNE
Cosmos 332 Rocket 3.9 05:17:39 10° SSW 05:22:27 80° ESE 05:27:19 10° NNE
Cosmos 1655 Rocket 4.1 05:18:43 10° NNW 05:25:06 72° W 05:31:27 10° S
Thor Agena Rocket 3.5 05:23:08 10° SSE 05:28:11 89° WSW 05:33:16 10° NNW
Cosmos 1758 4.1 05:24:54 12° SW 05:28:13 35° WNW 05:31:56 10° N
Cosmos 540 Rocket 3.5 05:25:18 10° SSW 05:30:29 81° WNW 05:35:42 10° NNE
Cosmos 1953 3.3 05:30:11 11° SW 05:33:32 30° WNW 05:37:10 10° NNW
PAYLOAD B 4.3 05:27:54 10° NNE 05:33:33 81° WNW 05:39:08 10° SSW
Cosmos 2263 Rocket 3.5 05:29:53 10° NNW 05:35:15 46° ENE 05:40:35 10° SE
GPS 2-04 Rocket1 3.8 05:32:32 11° WSW 05:35:44 26° S 05:38:56 10° SE
ISS -2.2 05:33:23 10° W 05:36:04 24° SW 05:38:46 10° SSE
CZ-4B R/B 3.2 05:32:33 10° N 05:38:07 77° WNW 05:43:33 10° SSW
PSLV R/B 4.4 05:35:18 10° NNE 05:39:25 51° E 05:43:34 10° S
Cosmos 1328 4.3 05:35:27 10° N 05:39:29 67° E 05:43:30 10° SSE
Cosmos 1805 4.4 05:36:35 10° SW 05:39:58 27° WNW 05:43:22 10° NNW
Cosmos 371 Rocket 3.4 05:37:53 10° SSW 05:42:41 84° ESE 05:47:32 10° NNE
Okean-O 3.2 05:40:44 10° NNE 05:45:09 61° ESE 05:49:31 10° S
Cosmos 1842 Rocket 4.0 05:41:19 10° SSW 05:45:39 48° WNW 05:50:01 10° N
Cosmos 1733 3.1 05:44:05 10° SSW 05:47:52 73° W 05:51:41 10° N
Cosmos 2058 3.6 05:46:02 10° N 05:50:15 61° E 05:54:25 10° SSE
SL-24 R/B - RUBIN 2 4.4 05:47:07 10° SW 05:52:51 84° WNW 05:59:20 10° NNE
BREEZE-M DEB (TANK) 4.1 05:50:25 10° SW 06:02:54 55° SE 06:06:39 10° ENE
